COSMOS 2251 DEB, 35777

Orbit data source: Space-Track

COSMOS 2251 DEB, 35777 is space debris in LEO originally from a launch on Wed, 16 Jun 1993 UTC launched from the Plesetsk Missile And Space Complex (PKMTR). The debris from Iridium 33, an American commercial communications satellite, has been tracked extensively since its accidental collision with the defunct Russian satellite Cosmos 2251 in 2009. This event, occurring at high speed in low Earth orbit (LEO), generated thousands of pieces of space debris, significantly increasing the risk of further collisions. The Iridium 33 debris cloud has impacted space traffic management and orbital debris mitigation strategies, making it a subject of ongoing study in space situational awareness.

Loading next visibility...
Identifier
35777, 1993-036ARX
Orbit
LEO
Country
Flag of CISCIS
Related business
Manufacturer
Unknown
Mission
Spacecraft
Bus & Motor
Unknown
Mass
Unknown
Launch date (UTC)
1993-06-16 (33 years ago)
Launch vehicle
Unknown
Launch site
Plesetsk Missile And Space Complex (PKMTR)
Object type
Payload
Rocket body
Debris
Shape & HBR
Unknown shape, 0.1 m
Radar Cross Section
Small (<0.1 m²)

Expand to show TLE details & history
Last TLE update: 1 day ago

TLE from 1 day ago
0 COSMOS 2251 DEB
1 35777U 93036ARX 26036.52782437  .00000770  00000-0  77985-3 0  9998
2 35777  73.7665 235.2038 0450436 121.8143 272.5856 13.41359462804195
Epoch: 2026-02-05T12:40Z
TLE epoch observation values (Epoch: 2026-02-05T12:40:04.025Z)
Latitude
28.01337°
Longitude
-81.62668°
Altitude
1,107.23 km
Speed
7.302 km/s
True Right ascension
16h 16m 16s
True Declination
27° 52' 40"
Sunlit
Object was in daylight at epoch
Visualization orbit readout
Latitude
Unknown
Longitude
Unknown
Altitude
Unknown
Speed
Unknown
Apparent Right ascension
Unknown
Apparent Declination
Unknown
Sunlit
N/A
Visualization observer readout
Local Sidereal Time
18:03:57
Azimuth
Unknown
Elevation
Unknown
Doppler factor
Unknown
Orbital elements
Apogee altitude
1,438.895 km
Perigee altitude
765.034 km
Semi-major axis
7,480.102 km
Eccentricity
0.04504
Inclination
73.7665°
RAAN
235.2038°
Arg. of periapsis
121.8143°
True anomaly
267.42311°
Mean anomaly
272.5856°
Eccentric anomaly
270.00479°
Mean motion
3.35492 °/min
Orbital period
107.31 mins
BSTAR
0.00077985
Loading maneuver chart data...
Computing Atmospheric mass density...

Documentation

Showing up to 5 results
|